Delta Virtual Airport Information Service

Portland International Airport

ICAO: KPDX Country: United States
Latitude: 45.5887 Longitude: -122.597
Latest Arrival : JBU1205 (3) (KJFK-KPDX) Latest Departure : DAC56 (KPDX-EGLL)


WX CaptureLIVE
Data provided by noaa.gov | Fetched at 09:35:07

METAR : KPDX 041453Z 12008KT 10SM FEW025 SCT031 BKN250 04/02 A2999 RMK AO2 SLP153 T00440017 53020

TAF : KPDX 041501Z 0415/0512 12007KT P6SM SCT028 OVC200 FM042100 16009KT P6SM BKN120 FM050000 17008KT P6SM -RA OVC070 FM050600 11007KT P6SM OVC050


Runway Data for KPDX
Data provided by openaviationdata.com

Runway ID Mag Var Hdg Length Elevation Surface ILS Freq ILS Id ILS Slope
3 18 26° 6995 ft 30 ft Asphalt -- -- --
10L 18 100° 7989 ft 30 ft Asphalt 111.3 IVDG 3
10R 18 100° 10985 ft 30 ft Asphalt 110.5 IPDX 3
21 18 206° 6995 ft 30 ft Asphalt 108.9 IGPO 0
28L 18 280° 10985 ft 30 ft Asphalt 110.5 IJMJ 3
28R 18 280° 7989 ft 30 ft Asphalt 111.3 IIAP 3

Portland International Airport, United States
Use only for reference purposes



Not for navigational purposes.